TimePST,TemperatureF,Dew PointF,Humidity,Sea Level PressureIn,VisibilityMPH,Wind Direction,Wind SpeedMPH,Gust SpeedMPH,PrecipitationIn,Events,Conditions,WindDirDegrees,DateUTC
12:53 AM,44.1,27.0,51,29.92,10.0,SE,5.8,-,N/A,,Clear,130,2013-03-05 08:53:00
1:53 AM,43.0,28.0,56,29.91,10.0,ESE,5.8,-,N/A,,Partly Cloudy,120,2013-03-05 09:53:00
2:53 AM,44.1,28.0,53,29.88,10.0,ESE,6.9,-,N/A,,Overcast,120,2013-03-05 10:53:00
5:53 AM,43.0,28.0,56,29.83,10.0,SSW,5.8,-,N/A,,Overcast,200,2013-03-05 13:53:00
6:53 AM,45.0,25.0,46,29.84,10.0,Calm,Calm,-,N/A,,Overcast,0,2013-03-05 14:53:00
7:53 AM,44.1,26.1,49,29.85,10.0,ESE,5.8,-,0.00,,Overcast,120,2013-03-05 15:53:00
8:53 AM,44.1,30.0,58,29.88,10.0,ESE,4.6,-,0.00,Rain,Light Rain,110,2013-03-05 16:53:00
9:53 AM,42.1,33.1,70,29.88,6.0,East,6.9,-,0.04,Rain,Light Rain,100,2013-03-05 17:53:00
10:53 AM,43.0,33.1,68,29.86,10.0,ESE,9.2,-,0.03,Rain,Light Rain,110,2013-03-05 18:53:00
11:53 AM,44.1,35.1,71,29.84,10.0,ESE,9.2,-,0.01,Rain,Light Rain,120,2013-03-05 19:53:00
12:53 PM,44.1,37.9,79,29.83,10.0,SE,8.1,-,0.00,Rain,Light Rain,130,2013-03-05 20:53:00
1:53 PM,44.1,37.0,76,29.81,10.0,SE,9.2,-,0.00,,Overcast,140,2013-03-05 21:53:00
2:53 PM,45.0,37.0,74,29.80,10.0,SE,6.9,-,N/A,,Overcast,140,2013-03-05 22:53:00
3:53 PM,45.0,37.0,74,29.78,10.0,ESE,6.9,-,0.00,Rain,Light Rain,110,2013-03-05 23:53:00
4:53 PM,43.0,37.9,82,29.78,10.0,ESE,8.1,-,0.00,Rain,Light Rain,120,2013-03-06 00:53:00
5:48 PM,42.8,39.2,87,29.78,8.0,SSE,5.8,-,0.03,Rain,Light Rain,150,2013-03-06 01:48:00
5:53 PM,43.0,39.0,86,29.78,10.0,ESE,6.9,-,0.03,Rain,Light Rain,120,2013-03-06 01:53:00
6:25 PM,42.8,37.4,81,29.78,10.0,ESE,8.1,-,0.01,Rain,Light Rain,120,2013-03-06 02:25:00
6:53 PM,43.0,37.9,82,29.78,10.0,East,9.2,-,0.02,Rain,Light Rain,100,2013-03-06 02:53:00
7:09 PM,42.8,37.4,81,29.77,10.0,ESE,8.1,-,0.00,Rain,Light Rain,110,2013-03-06 03:09:00
7:53 PM,42.1,37.9,85,29.76,10.0,ESE,5.8,-,0.03,Rain,Light Rain,110,2013-03-06 03:53:00
8:00 PM,42.8,37.4,81,29.76,10.0,East,4.6,-,0.00,Rain,Light Rain,100,2013-03-06 04:00:00
8:40 PM,42.8,37.4,81,29.76,10.0,ESE,6.9,-,0.01,Rain,Light Rain,120,2013-03-06 04:40:00
8:53 PM,42.1,37.9,85,29.75,10.0,ESE,5.8,-,0.01,Rain,Light Rain,110,2013-03-06 04:53:00
9:53 PM,42.1,37.9,85,29.73,10.0,East,3.5,-,0.01,Rain,Light Rain,90,2013-03-06 05:53:00
10:53 PM,42.1,39.0,89,29.70,10.0,NW,4.6,-,0.00,,Overcast,320,2013-03-06 06:53:00
11:12 PM,42.8,39.2,87,29.69,8.0,NW,4.6,-,N/A,,Overcast,320,2013-03-06 07:12:00
11:53 PM,41.0,37.9,89,29.67,10.0,NW,4.6,-,N/A,,Overcast,310,2013-03-06 07:53:00